Theta_e
338 338 340 343 342 343 345 344 345 345 348 349 348 346 347 345 344 344 342 341 340 341 341 341 341 341 341 342 343 343 344 345 348 349 348 348 348 347 347 347 347 348 347 347 346 346 346 344 344 343 343 343 341 341 341 342 342 342 343 342 342 343 344 344 345 344 344 343 342 344 345 345 345 344 343 343 342 341 341 340 339 336 335 338 341
337 337 339 342 345 345 344 345 346 347 350 350 348 347 346 345 342 341 341 341 341 341 341 341 341 341 342 342 342 342 348 349 349 348 348 348 347 347 347 346 346 346 346 345 344 344 344 344 343 343 343 343 343 342 341 340 339 339 340 341 342 342 342 343 343 343 343 344 344 343 343 344 345 344 344 343 342 341 340 340 339 335 334 339 339
340 341 340 344 349 347 345 346 348 350 350 350 349 347 346 345 344 342 340 340 340 340 340 339 341 341 341 341 341 345 346 347 347 348 347 346 344 343 343 343 343 344 344 344 343 343 343 343 343 343 342 340 340 339 338 338 339 338 339 340 340 340 340 341 341 341 342 342 342 343 343 343 341 342 343 342 341 340 340 340 339 338 335 340 339
341 343 340 344 346 348 350 349 349 349 349 347 346 345 343 343 343 342 341 341 341 341 340 340 340 340 340 340 340 344 345 346 346 346 346 345 344 342 342 341 342 342 342 342 342 342 342 343 343 343 341 340 340 339 338 338 338 338 338 339 339 339 339 340 339 339 339 339 338 337 335 333 337 340 341 341 343 343 340 341 340 339 340 340 340
342 343 340 343 343 347 349 350 350 350 349 347 347 346 345 343 341 341 340 340 338 339 338 339 339 339 339 340 340 341 343 343 345 345 346 345 344 343 342 340 341 341 340 340 340 341 341 341 342 342 340 339 338 338 337 337 337 337 338 339 339 339 339 338 338 337 338 337 336 332 328 330 332 338 339 342 344 342 341 341 342 342 342 341 341
342 344 344 344 342 345 348 349 350 350 349 348 346 346 345 344 342 341 341 341 340 338 338 338 338 339 340 340 340 344 347 347 346 346 345 344 343 342 341 341 339 340 339 339 339 340 340 342 341 342 340 339 338 338 338 337 336 337 338 338 338 338 337 337 336 336 335 333 332 328 328 329 328 335 342 343 343 340 340 341 341 342 341 342 342
343 344 344 343 342 344 347 349 349 350 349 347 347 345 344 343 341 340 339 339 340 340 339 338 338 339 339 338 341 345 346 346 346 345 343 342 340 339 338 338 339 339 339 339 338 338 340 341 341 341 340 339 338 338 337 337 336 336 337 337 337 336 336 336 335 335 333 328 324 325 328 331 332 335 341 342 343 342 340 342 342 341 341 342 341
344 344 343 341 341 344 346 349 349 349 349 347 346 345 345 344 343 342 341 340 340 340 339 339 339 339 339 338 342 344 344 344 344 343 342 340 340 339 338 337 338 338 338 338 339 338 338 340 341 341 340 339 338 338 337 336 336 336 336 337 337 337 338 337 336 335 334 327 328 329 331 334 335 336 341 341 342 342 341 341 340 342 340 340 337
343 343 342 340 340 342 345 347 349 349 348 346 346 345 344 343 342 341 340 340 339 339 339 339 339 339 339 338 341 343 342 343 343 342 341 339 338 338 336 336 337 337 336 337 337 338 338 340 341 341 340 339 338 338 338 338 339 338 338 339 338 338 337 336 335 333 331 329 330 331 332 332 333 335 339 341 341 340 339 338 339 340 338 337 337
343 343 341 338 339 341 345 347 349 349 348 346 345 345 345 344 341 341 340 340 340 340 339 339 339 338 338 338 343 343 342 341 341 340 338 337 337 339 338 335 335 336 336 337 338 338 339 340 340 340 340 341 341 340 340 339 339 339 339 339 339 338 337 335 333 331 328 330 331 332 334 336 334 334 337 340 340 340 338 335 335 336 336 336 336
343 343 340 337 338 341 347 349 349 348 348 346 346 346 345 344 342 342 341 341 340 340 339 339 339 339 338 337 341 340 339 339 340 339 340 340 341 342 339 336 335 336 336 337 338 338 339 340 340 340 341 342 341 340 341 340 340 340 339 339 338 337 336 334 331 327 328 328 329 331 335 336 332 333 339 339 339 338 335 335 335 336 336 336 336
342 342 339 336 342 340 346 347 348 349 347 346 346 346 345 343 342 341 341 340 340 340 339 338 338 338 338 338 338 338 338 339 339 339 341 341 342 341 339 336 335 335 336 337 337 338 339 339 340 340 340 340 341 341 341 340 340 339 339 338 337 336 334 332 328 327 327 328 329 330 330 331 332 334 338 338 339 337 334 335 336 336 335 335 335
341 341 340 338 337 340 344 347 347 348 347 347 346 346 345 344 342 342 341 341 340 340 340 339 338 338 338 337 338 336 339 339 339 342 342 342 342 340 338 336 335 335 336 337 337 338 339 339 339 340 340 340 340 340 340 340 339 339 338 337 336 335 333 331 328 329 330 330 330 331 330 331 332 336 336 336 337 336 335 334 333 333 333 332 331
340 341 341 340 339 344 340 343 344 347 347 347 346 346 345 345 343 343 342 340 340 340 340 339 338 337 337 336 337 338 336 340 342 342 341 340 340 340 338 336 335 335 336 337 338 337 338 339 339 340 340 339 339 339 339 339 338 337 336 336 334 333 330 330 331 330 330 329 329 329 329 331 332 336 337 336 334 334 331 331 330 331 330 330 329
340 341 341 342 340 341 342 340 343 343 345 346 346 346 345 345 343 342 342 340 340 340 340 339 338 338 337 336 336 338 336 339 340 339 339 339 340 338 336 335 334 334 335 336 336 336 337 338 338 339 338 338 338 338 337 337 336 336 334 333 332 330 328 328 329 330 330 330 329 328 329 331 335 335 335 335 333 332 330 333 333 333 332 331 331
341 341 341 342 342 341 342 342 339 339 342 344 344 344 345 345 343 342 341 341 340 340 339 338 338 337 337 336 336 337 335 339 338 338 340 339 340 338 336 334 333 333 334 336 336 336 336 337 338 337 337 337 336 336 336 335 334 333 332 331 330 328 325 325 326 327 326 327 327 327 327 330 333 333 332 332 331 332 332 331 331 331 331 331 331
341 342 342 342 342 342 341 341 338 335 336 338 340 341 342 344 343 342 341 340 340 340 339 338 338 337 337 336 337 340 339 337 335 337 340 338 337 336 336 333 332 333 336 336 335 336 336 337 336 336 336 336 335 335 334 333 333 332 331 330 328 326 323 322 325 325 326 325 326 325 324 326 331 332 332 333 332 331 331 330 330 330 330 329 328
341 342 341 342 342 342 341 340 338 338 339 336 334 338 340 342 342 341 341 340 340 340 340 339 338 339 339 338 337 338 338 339 339 338 337 337 336 335 334 333 332 333 333 334 335 335 335 336 336 336 335 335 334 334 333 332 332 330 329 328 327 325 323 322 323 323 326 326 324 324 324 330 330 330 332 332 331 328 326 326 326 326 325 325 325
340 341 341 341 342 342 341 339 337 338 338 337 337 337 335 338 340 339 339 339 339 339 339 338 338 337 336 334 332 331 331 332 334 336 336 335 334 334 334 333 332 332 334 334 333 333 335 335 335 335 334 334 334 333 332 331 330 329 327 325 322 321 320 322 322 323 324 325 324 322 322 331 331 331 331 332 331 330 330 329 328 326 324 324 323
338 339 340 341 342 341 340 339 338 339 337 336 336 336 333 333 336 336 336 337 337 337 337 334 332 330 329 328 325 325 324 325 325 327 330 333 331 329 333 333 331 332 333 333 332 332 334 334 335 334 334 333 333 332 330 329 328 327 324 322 320 319 320 320 322 323 323 322 320 320 328 330 331 331 332 332 329 326 325 327 326 325 324 323 323
337 338 338 340 341 340 339 338 339 339 337 337 337 336 334 331 332 331 332 334 334 334 334 327 323 322 322 320 321 321 320 321 322 322 322 325 325 326 331 332 331 331 332 332 331 332 332 332 332 331 329 328 325 326 327 327 325 324 321 319 317 318 318 320 321 321 322 321 324 327 331 332 332 331 331 330 328 325 323 326 322 322 322 322 321
334 335 337 339 339 339 338 339 338 338 338 338 338 337 334 333 335 334 333 331 328 327 326 326 326 322 320 321 320 320 319 317 320 325 321 323 323 324 327 331 330 331 332 332 330 331 331 331 330 328 326 323 319 314 315 319 320 320 317 315 314 314 315 317 318 319 320 320 322 328 331 331 330 332 332 331 329 326 325 323 323 323 322 322 321
333 334 335 338 339 339 339 338 338 338 338 339 338 337 335 335 334 334 332 327 327 326 326 324 322 321 320 320 319 318 317 316 318 320 320 320 322 322 326 328 330 329 331 330 329 329 330 329 327 325 322 318 312 311 311 310 312 314 313 312 311 311 313 314 315 315 316 319 323 328 331 330 331 331 330 328 326 324 322 321 323 322 321 321 320
333 334 334 337 339 338 339 339 338 338 338 339 338 337 337 335 336 336 332 328 326 325 324 323 322 321 321 320 318 317 317 317 321 322 321 320 321 322 324 325 326 325 327 327 326 325 325 324 322 319 314 310 309 309 310 309 309 309 310 310 310 309 311 311 311 313 315 319 326 328 329 328 326 330 330 327 325 323 322 321 321 322 320 319 319
335 335 335 336 337 338 338 339 338 338 337 338 337 336 337 336 336 336 334 328 324 323 323 322 321 321 320 319 318 316 316 317 316 317 318 319 319 320 320 320 318 317 319 314 311 309 308 307 308 308 307 308 308 308 309 309 308 308 308 308 308 308 308 309 311 311 312 316 319 325 327 327 328 330 328 325 323 322 322 321 321 321 320 319 319
332 333 334 335 337 338 338 339 339 338 338 338 337 336 337 336 336 336 334 330 326 323 322 321 321 320 319 319 318 317 316 316 315 315 316 318 317 316 316 315 314 313 315 311 307 305 305 305 305 305 304 305 306 306 307 308 308 307 307 307 307 306 306 308 310 309 310 315 316 322 326 328 328 328 327 325 322 321 322 321 321 321 320 319 318
332 333 335 335 337 337 337 338 338 338 338 339 338 336 337 337 337 336 334 331 327 324 321 320 320 319 319 318 318 316 315 315 315 315 315 315 316 315 314 314 314 314 313 310 305 304 304 304 304 304 304 305 304 304 305 305 306 306 306 305 305 305 305 307 308 308 310 312 313 317 323 327 326 326 325 324 322 321 321 320 322 320 319 319 318
330 332 334 335 334 336 337 337 338 338 338 339 338 337 337 337 337 334 335 331 328 325 323 321 320 319 319 319 318 317 316 315 315 315 315 314 315 315 314 313 312 313 312 308 305 303 303 303 303 303 304 304 304 303 304 304 304 305 305 304 304 303 305 304 304 306 306 307 309 315 322 325 326 326 325 324 322 322 323 322 321 320 319 318 317
328 330 333 334 335 336 337 337 337 337 338 338 337 337 337 337 336 335 335 329 331 327 324 321 319 319 319 319 318 316 315 315 315 315 314 314 314 313 313 313 313 312 310 305 305 303 303 303 303 303 303 303 303 303 303 303 303 304 305 303 303 302 303 303 302 302 302 303 306 311 320 324 326 326 325 323 322 323 323 322 321 320 318 317 316
327 329 331 333 335 336 336 336 337 337 338 338 337 337 337 336 336 335 336 331 333 330 325 321 320 319 319 318 318 317 316 315 314 313 314 313 313 312 312 312 313 311 309 305 304 303 303 302 302 302 302 302 302 302 302 302 302 302 302 303 302 302 301 301 301 300 299 301 303 306 314 320 325 326 325 322 323 324 321 320 322 320 318 317 316
324 326 328 331 332 335 336 337 337 336 338 336 337 337 337 336 335 336 336 334 335 332 327 323 321 321 321 318 318 317 316 315 314 313 313 313 312 311 311 310 311 310 308 305 303 303 302 302 302 302 302 302 301 301 302 301 300 301 300 302 301 301 301 301 300 300 299 299 300 300 306 315 322 325 326 322 321 320 320 321 320 319 319 318 317
323 325 328 328 330 333 336 337 338 337 336 337 335 336 336 337 336 336 336 335 335 334 330 326 321 322 324 320 319 317 316 315 314 313 312 311 311 311 310 310 311 309 307 304 303 302 301 301 300 300 300 300 299 299 300 301 299 299 299 299 299 300 299 299 299 298 298 297 297 298 300 305 313 318 321 322 319 320 320 320 319 319 318 317 317
325 326 327 325 328 331 334 336 338 337 336 337 337 337 337 337 337 336 336 336 335 335 333 329 324 322 325 322 320 318 316 316 314 313 311 311 311 310 309 309 310 309 306 304 303 301 300 299 298 298 298 298 298 298 299 299 298 297 298 297 298 297 296 297 297 297 296 295 296 296 297 298 300 309 313 319 321 319 320 319 318 318 317 317 316
324 324 323 325 328 330 333 335 336 337 336 338 337 337 337 337 337 337 336 336 335 335 334 333 328 324 325 324 321 319 317 317 315 313 311 310 309 310 309 308 308 307 305 304 303 301 299 298 297 297 298 298 298 297 298 297 295 295 295 294 295 294 294 295 294 294 294 294 294 294 295 296 297 298 300 311 315 320 319 318 318 318 316 316 316
320 320 323 326 326 329 331 334 333 336 334 336 336 337 337 337 336 337 336 336 336 335 335 334 332 328 326 327 323 320 318 318 317 315 313 312 310 309 309 309 308 307 305 304 303 300 299 298 297 297 297 296 296 296 297 296 295 294 293 294 294 293 294 293 293 293 293 293 294 293 294 295 295 295 297 297 304 310 319 317 318 317 315 314 315
321 322 322 322 325 327 328 331 332 334 334 335 336 337 336 337 336 332 336 336 335 335 335 335 334 333 329 329 327 323 319 319 318 317 314 312 311 310 309 309 308 307 306 305 303 300 298 298 297 298 296 294 295 294 294 294 294 293 292 292 292 294 293 293 292 292 291 292 293 292 292 293 293 294 297 295 298 303 311 316 318 317 315 314 314
321 321 321 321 322 325 327 329 330 332 333 333 334 335 336 335 335 335 336 335 335 335 336 335 335 334 332 331 330 326 322 321 319 317 315 313 311 309 308 308 308 309 307 306 304 301 298 298 296 297 298 295 295 293 293 293 293 292 292 291 292 293 293 292 291 291 293 293 292 292 291 291 293 297 291 292 293 295 306 311 313 314 315 314 313
319 320 322 322 323 324 326 328 330 330 331 332 332 333 334 334 333 334 332 335 335 335 336 336 335 334 334 332 332 329 324 322 321 318 316 314 313 310 308 307 308 309 308 307 306 302 300 298 296 295 296 295 294 293 292 292 293 292 291 291 291 292 292 292 292 294 291 292 291 291 289 288 288 288 289 290 291 293 294 303 307 309 310 316 313
319 320 320 322 322 322 323 324 326 328 329 330 330 331 330 330 330 331 331 333 334 335 335 335 335 335 334 334 333 332 326 324 323 320 317 315 314 313 309 306 307 308 308 307 306 302 300 299 297 295 294 295 295 294 293 293 292 292 291 291 291 291 292 292 291 291 290 290 291 293 289 289 287 287 287 288 289 290 291 290 292 293 298 311 315
316 318 318 320 321 321 321 323 324 327 328 329 328 328 327 326 325 324 327 329 332 331 333 334 334 334 335 334 333 333 330 326 325 323 320 318 316 315 313 309 307 307 308 307 306 303 301 299 298 296 294 293 293 293 293 292 290 290 290 289 289 291 291 291 291 291 291 290 291 290 290 288 288 287 286 286 287 288 289 289 291 290 291 302 308
312 315 317 318 320 322 321 321 323 324 325 327 327 328 326 325 324 325 326 328 329 330 330 332 333 334 333 334 333 333 332 329 326 325 323 319 319 318 316 312 308 307 307 307 307 304 302 301 299 297 295 294 292 292 292 292 290 289 289 289 289 291 292 291 289 290 290 290 289 289 289 289 288 288 285 285 286 287 287 287 287 288 289 289 295
312 314 316 318 320 321 320 322 322 323 324 326 327 327 329 328 327 326 327 327 327 327 328 330 331 331 332 333 333 333 333 331 327 327 325 324 322 320 317 315 311 308 307 307 307 304 302 300 298 296 296 295 293 293 292 293 291 292 289 288 291 291 292 291 289 289 289 289 288 288 288 288 288 287 286 286 285 286 286 286 287 288 287 288 287
312 313 316 316 317 318 320 320 321 322 323 324 325 325 326 325 325 322 326 321 319 325 326 325 324 328 330 332 332 333 333 332 330 327 326 325 324 323 319 317 314 310 308 307 307 305 303 300 298 298 295 294 293 294 293 298 294 292 292 290 288 289 291 289 289 289 289 288 288 287 288 288 288 287 286 286 286 286 286 286 287 288 288 288 288
309 309 313 315 317 318 319 319 320 321 322 322 321 323 320 317 316 313 313 321 320 318 319 316 322 325 327 329 330 332 332 331 331 329 328 327 326 324 322 319 316 313 311 308 308 306 304 301 299 299 297 294 293 292 294 296 294 294 291 292 289 289 289 291 287 286 287 287 287 287 287 287 287 287 286 286 286 287 287 286 286 287 288 288 287
308 310 312 315 318 318 319 320 320 320 321 318 319 316 314 312 307 308 308 311 311 313 317 319 321 321 324 326 328 329 330 331 331 330 327 328 327 326 324 321 318 315 312 311 309 308 306 303 301 300 297 297 294 293 293 295 295 299 296 290 288 288 290 288 286 285 285 286 287 287 287 287 287 286 286 286 286 286 286 286 286 285 286 286 287
306 310 312 315 315 316 316 317 317 317 318 318 318 316 317 317 313 315 315 314 315 314 316 320 320 320 322 322 322 326 328 329 330 330 329 326 327 326 325 322 319 316 314 312 311 310 307 304 303 302 299 300 298 294 292 293 295 295 297 297 294 295 291 287 289 288 284 286 286 287 287 287 287 286 286 286 286 286 287 286 287 286 286 287 288
303 304 305 309 310 310 313 315 316 316 316 316 315 315 315 315 316 318 319 318 318 317 313 310 318 319 319 321 323 322 325 327 328 330 330 328 328 327 326 324 321 319 315 314 313 311 309 307 305 303 302 301 300 296 294 292 293 294 295 296 296 295 292 288 289 286 284 285 284 286 286 288 287 287 287 288 288 288 287 287 287 287 287 287 287
298 300 302 304 308 309 309 312 312 312 313 314 314 315 317 315 315 316 316 317 317 317 312 309 305 310 316 319 320 321 322 324 327 327 328 329 327 329 328 326 324 321 317 315 314 312 310 309 306 304 304 302 301 300 297 295 292 293 295 294 294 295 292 295 293 294 292 286 285 287 287 289 288 288 288 288 288 288 288 288 287 287 287 287 287
296 298 300 301 303 305 306 307 310 310 310 312 313 313 316 316 316 316 315 315 315 312 303 303 308 306 312 314 317 319 319 320 323 325 326 326 324 325 326 325 324 321 316 316 315 314 312 309 306 304 303 302 302 302 301 297 295 296 294 294 295 295 294 293 293 293 291 291 289 285 285 286 287 288 288 288 289 289 289 288 287 287 287 287 286
296 297 297 298 300 300 304 306 308 308 309 310 311 312 313 312 314 314 314 315 310 305 303 305 305 303 310 312 315 317 318 318 319 319 320 322 322 321 321 321 320 320 316 317 316 315 313 312 309 307 305 303 303 302 302 300 297 298 297 296 294 293 292 291 290 290 289 292 295 287 287 284 283 286 288 288 288 288 287 287 286 287 286 286 286
293 296 296 297 297 300 301 304 305 304 305 308 309 310 311 311 313 313 313 314 310 308 306 305 303 301 307 309 312 315 316 317 316 316 317 317 318 318 320 321 320 316 316 317 318 317 315 312 310 308 306 304 303 302 302 302 300 298 297 297 296 295 293 293 293 291 291 290 288 289 287 287 287 287 288 288 288 287 286 286 286 286 286 286 286
Wind_Speed
3 3 2 2 17 18 16 14 13 13 13 15 15 15 16 16 15 14 13 12 11 12 12 12 13 12 12 12 13 13 12 14 16 17 17 17 18 18 18 18 18 18 19 19 20 20 20 20 18 18 19 19 19 18 17 17 16 16 17 17 18 17 16 16 15 17 16 17 17 18 19 19 21 19 20 21 21 19 16 16 14 11 10 15 21
7 3 2 1 10 15 13 14 14 12 15 16 16 16 16 16 14 13 12 12 12 12 12 13 13 13 13 12 13 13 16 18 18 17 17 17 17 18 18 19 18 17 18 18 18 18 19 18 18 18 18 18 18 18 17 16 16 16 17 17 17 16 17 16 14 15 17 16 17 18 18 19 19 20 20 20 20 19 16 16 18 11 9 18 19
6 3 2 2 6 9 12 11 12 14 15 16 16 15 15 15 14 14 13 12 12 12 12 12 13 13 12 13 13 15 15 16 17 18 18 18 18 18 18 17 16 16 17 17 17 17 16 16 16 16 17 17 17 17 16 16 16 17 17 17 16 16 16 15 16 16 15 16 17 17 17 19 19 19 20 20 19 18 15 16 17 16 13 22 19
8 4 2 3 5 5 8 10 13 14 15 15 15 14 14 14 14 14 13 12 12 11 11 12 13 12 13 13 14 14 14 14 15 17 17 17 17 16 16 16 15 15 15 17 16 16 16 16 17 17 17 17 16 17 17 17 17 17 17 16 16 16 16 15 16 15 15 16 15 10 6 7 12 19 20 20 20 18 13 15 18 20 21 20 22
8 5 3 3 3 5 8 10 12 14 15 15 15 14 15 14 14 13 13 12 12 11 12 12 12 13 13 13 13 13 13 14 14 16 17 17 16 16 16 15 15 14 15 16 16 16 16 16 16 17 17 16 16 16 17 18 17 18 16 16 15 15 15 15 14 13 12 10 9 6 5 5 8 18 19 20 19 17 18 20 20 21 20 22 22
8 5 3 3 3 5 8 10 13 14 14 14 14 14 15 14 14 12 12 12 13 11 10 11 12 12 12 13 14 15 16 16 15 16 17 16 16 15 15 15 15 14 14 16 15 16 15 15 16 15 16 16 15 15 16 18 18 17 16 15 15 15 14 13 13 13 12 11 10 5 6 7 5 10 21 20 19 17 19 20 20 20 21 22 22
10 5 4 4 3 5 9 11 13 14 14 14 13 13 14 14 14 13 12 11 12 12 11 12 13 13 13 13 14 15 15 15 15 16 16 16 15 14 14 14 15 14 14 15 15 15 15 15 15 16 16 16 16 16 17 17 18 17 16 15 15 14 13 13 13 12 11 7 6 5 5 5 4 7 19 18 19 20 21 21 21 21 21 22 21
7 5 4 3 3 6 9 10 12 14 14 14 13 14 14 14 13 12 12 12 12 11 11 11 12 13 12 11 14 15 15 14 15 16 16 15 14 14 15 14 15 14 14 15 15 15 14 14 13 15 15 16 16 16 16 17 17 17 16 14 14 13 13 14 13 12 11 6 5 6 7 9 9 7 17 20 20 20 20 21 21 22 22 21 16
9 5 4 4 4 7 9 9 12 13 14 14 13 14 13 14 13 13 12 11 11 11 11 11 11 12 13 11 14 15 14 14 14 14 14 13 14 14 15 14 14 15 15 15 15 14 13 13 14 15 16 17 16 16 16 16 16 15 15 14 14 14 14 14 13 11 6 6 7 7 8 6 5 7 17 21 21 22 20 17 19 23 22 17 17
8 5 4 3 4 6 8 9 12 13 14 13 13 13 14 14 13 13 12 11 11 11 11 11 11 11 12 11 16 15 14 13 13 13 12 12 13 15 15 14 14 14 15 15 14 13 13 14 15 16 16 16 16 16 16 16 16 16 16 15 15 15 14 13 12 8 6 6 6 7 9 10 6 7 17 21 21 21 18 16 14 15 15 20 23
9 5 4 3 4 7 9 10 10 12 14 13 13 13 13 13 13 13 12 12 11 11 11 11 11 11 11 11 14 13 12 11 12 13 13 14 14 16 16 14 13 13 14 14 14 13 14 14 15 15 15 16 16 16 16 16 16 16 16 15 15 15 14 12 8 6 7 7 7 6 9 12 7 7 18 21 22 20 16 17 19 20 21 22 22
9 6 3 3 5 7 9 9 10 13 13 13 13 13 13 12 12 13 12 12 11 11 11 11 10 11 10 11 13 12 12 12 12 12 13 14 16 16 15 14 12 13 14 14 14 13 13 13 13 14 15 16 16 16 16 15 16 16 16 15 14 14 13 11 7 7 7 7 6 6 5 6 8 12 21 20 20 19 18 20 23 23 23 23 23
8 7 4 3 4 6 8 10 10 12 13 14 13 13 13 12 12 13 12 12 11 11 11 11 10 10 10 9 14 12 13 12 12 12 13 14 14 15 14 14 12 14 15 14 13 13 13 13 13 14 15 15 16 16 15 16 16 15 15 15 14 13 12 10 6 7 7 7 6 7 7 6 7 18 19 20 21 19 20 21 22 22 21 20 20
9 7 6 5 4 7 8 9 10 11 11 12 13 12 13 13 12 12 12 12 11 11 11 11 10 10 10 9 12 13 11 13 13 13 13 13 13 15 15 14 12 14 14 15 13 13 13 13 14 16 16 15 15 15 15 15 15 15 15 14 13 12 10 8 7 6 6 6 6 5 5 6 7 18 19 20 21 19 19 20 20 20 19 19 19
11 9 7 6 5 4 8 8 9 10 10 11 12 12 13 13 12 12 12 12 11 11 10 10 10 10 9 9 11 13 11 12 12 12 12 12 13 15 14 13 12 13 14 14 13 13 13 13 14 16 16 15 15 14 15 15 15 15 14 13 12 10 10 6 6 6 6 6 6 6 6 7 16 18 20 21 19 18 19 21 21 21 20 20 20
10 9 8 7 6 5 5 8 10 10 10 11 11 11 12 12 12 12 12 12 12 11 10 10 10 10 9 8 9 12 11 12 11 11 12 13 13 14 15 13 12 13 14 14 13 13 13 14 15 15 15 16 16 16 16 16 16 15 14 13 12 12 11 6 5 5 5 5 5 4 4 8 17 18 17 18 18 19 19 19 19 19 20 20 21
8 8 9 8 7 6 6 6 7 10 10 11 11 11 11 11 11 12 11 12 12 12 11 11 10 10 9 8 7 6 8 9 10 11 13 12 12 13 14 12 11 14 15 13 13 13 14 16 16 16 16 16 15 16 16 15 15 14 13 13 12 10 10 7 5 5 5 5 4 5 5 5 13 16 18 19 20 19 19 19 18 19 18 19 20
8 8 9 8 7 6 6 5 6 6 6 8 9 10 11 11 11 11 10 11 11 12 11 11 10 8 6 6 6 7 8 8 8 8 8 13 12 12 13 12 11 13 13 14 13 13 13 15 16 15 15 15 15 15 15 14 14 13 13 13 11 9 10 8 5 5 5 5 5 4 5 9 15 17 19 19 19 18 17 17 17 17 17 17 17
7 8 8 8 8 7 6 5 5 5 6 5 4 7 10 11 11 11 11 10 11 10 10 9 9 8 8 7 8 9 10 11 10 10 10 10 10 11 13 12 11 13 14 13 12 12 13 15 15 15 15 15 15 14 14 14 13 13 13 11 11 11 10 6 5 5 5 5 4 4 4 14 18 18 18 18 19 19 19 19 19 18 17 16 16
7 7 8 8 7 7 6 5 5 6 5 5 5 5 8 11 11 10 10 10 10 10 9 9 9 9 9 9 9 7 8 8 10 8 11 11 11 9 11 9 12 14 13 13 12 13 14 14 15 15 14 14 15 14 13 13 12 12 11 11 11 10 7 5 4 5 4 4 3 3 5 13 18 18 18 19 19 17 15 17 17 18 16 17 17
4 7 7 7 7 8 7 5 6 6 6 5 5 5 6 10 9 10 10 10 9 9 9 9 9 9 8 9 8 5 4 5 6 5 8 7 10 11 11 11 11 12 13 13 12 13 14 15 15 15 15 14 11 12 12 12 12 12 11 10 12 7 5 5 5 5 4 4 5 5 12 15 18 17 17 19 18 17 15 16 15 14 15 16 16
7 6 6 7 7 6 7 7 6 7 6 5 5 5 5 8 6 6 6 7 7 8 7 5 5 4 7 6 5 4 4 3 4 5 5 6 8 11 11 10 10 9 12 12 12 13 14 14 14 14 14 12 11 7 7 9 11 11 10 12 8 5 4 5 6 5 4 3 4 9 13 13 16 19 18 19 19 18 16 15 15 15 15 15 15
8 7 7 8 8 7 8 8 8 7 8 7 6 5 6 5 5 6 5 6 6 5 5 5 4 4 4 4 4 5 4 3 3 4 4 7 8 10 10 10 9 8 11 11 12 13 14 14 14 13 12 11 7 6 5 5 6 9 9 7 6 5 4 5 5 4 3 1 2 10 14 17 16 17 18 18 18 16 13 13 15 15 14 14 14
9 9 9 7 7 8 9 9 9 8 7 6 6 6 5 5 5 5 5 5 5 4 4 4 4 4 4 4 4 3 4 4 4 7 7 5 7 10 11 11 9 8 10 7 9 10 12 13 13 11 8 5 5 5 5 5 5 5 5 5 5 4 5 5 5 4 4 3 6 14 13 14 13 18 18 17 16 14 13 13 14 14 13 13 13
8 6 7 8 9 8 8 8 8 8 8 6 7 7 6 5 5 5 6 5 5 4 4 4 4 5 4 5 4 3 4 4 3 3 5 5 5 6 6 5 4 4 7 5 6 5 6 6 6 6 5 5 6 5 5 6 5 5 5 5 5 4 4 4 4 5 4 3 3 9 9 12 15 16 17 16 15 13 14 13 13 13 12 12 13
5 7 9 8 9 8 8 7 8 8 8 7 8 7 7 6 6 6 6 5 5 5 5 5 5 5 4 5 5 5 4 5 3 3 3 5 5 5 5 4 4 4 4 5 5 5 5 5 5 6 5 5 5 5 4 5 5 5 5 4 5 4 4 4 4 4 3 3 3 2 11 15 15 15 14 14 12 13 13 12 13 13 13 12 12
8 10 8 8 8 9 9 8 8 8 9 7 6 7 7 6 6 6 7 7 6 6 6 5 5 5 5 5 7 6 5 5 5 4 4 3 5 5 5 5 5 5 4 6 5 4 5 5 6 5 4 5 5 4 5 4 4 6 5 5 4 4 4 4 4 3 3 3 3 8 6 12 13 14 14 14 12 11 13 12 12 11 12 12 11
7 9 8 8 9 11 10 9 9 9 8 8 7 8 7 7 6 7 7 7 7 7 6 6 6 6 6 6 5 6 7 6 5 5 5 3 5 4 5 5 5 4 4 5 5 5 5 5 5 5 5 4 5 4 5 4 4 4 5 4 4 4 4 4 3 4 4 3 4 6 4 11 12 14 15 14 11 12 15 13 13 12 11 11 11
9 10 9 9 10 10 10 11 10 10 8 8 8 7 7 7 6 7 7 7 7 7 7 6 6 6 6 6 6 7 5 6 6 6 5 5 4 4 5 5 5 5 5 5 5 5 5 5 6 5 5 5 5 5 5 4 4 4 5 4 4 3 4 4 4 4 4 4 5 6 5 12 13 12 14 14 12 15 14 12 12 12 10 10 10
12 10 9 10 9 10 11 12 12 11 9 9 8 7 8 9 8 8 8 7 8 7 7 6 6 6 6 6 6 7 8 8 7 6 7 6 5 4 4 5 5 5 5 5 4 5 5 5 5 5 6 5 5 5 5 4 4 3 4 5 4 4 3 4 3 4 3 4 5 5 7 6 13 12 12 11 14 14 11 12 13 13 11 10 10
8 10 10 10 9 10 11 12 11 10 9 9 9 8 8 9 9 7 7 8 8 7 7 7 6 7 7 7 6 6 6 6 7 7 6 6 5 5 5 4 5 5 5 5 3 4 5 5 6 6 6 6 5 4 5 5 3 3 3 4 4 4 4 3 4 3 3 3 4 3 3 8 9 10 9 10 11 11 11 13 12 12 12 11 11
11 13 11 8 9 12 12 11 11 10 11 10 9 9 9 9 9 8 8 8 8 8 8 8 8 8 8 8 7 6 6 6 6 6 6 6 6 6 5 5 5 5 5 5 5 3 4 4 4 4 4 5 5 4 3 6 4 3 3 4 3 4 3 3 4 3 3 3 4 2 2 5 8 5 6 12 11 13 11 12 11 11 11 10 9
11 11 9 8 12 12 11 12 11 11 12 11 10 9 8 8 8 9 8 8 8 8 8 9 8 8 8 9 8 8 7 7 7 7 6 6 6 6 6 6 5 5 4 5 5 4 4 5 4 4 5 5 5 4 4 4 5 3 3 3 3 3 2 3 3 3 3 2 3 2 2 3 3 6 7 5 7 11 13 11 10 10 8 8 9
9 6 6 11 10 8 9 8 11 12 12 11 9 8 9 8 8 7 8 8 8 8 8 9 8 8 8 9 9 8 8 7 7 7 6 6 6 6 7 6 5 4 5 5 6 5 6 5 5 5 5 6 5 5 5 5 4 4 4 2 3 2 3 3 2 3 2 2 1 2 2 3 3 3 3 6 7 4 11 11 12 11 11 10 9
7 6 12 13 8 9 8 8 11 11 11 11 11 10 8 8 8 8 8 9 8 8 7 8 8 8 8 8 9 9 9 8 8 8 8 7 7 7 7 7 6 6 6 5 5 5 6 6 6 6 5 4 5 3 4 5 5 5 3 3 3 2 3 3 2 2 1 1 1 2 1 2 3 3 3 4 5 7 4 8 15 13 10 7 9
12 11 9 6 9 9 9 10 10 12 12 12 11 10 9 9 8 7 7 8 8 8 8 7 8 8 9 8 10 10 10 9 9 8 8 8 8 8 8 6 8 7 6 5 5 6 5 5 5 7 7 4 6 4 3 5 4 4 3 4 3 3 3 2 2 2 2 2 1 1 1 1 1 2 3 4 4 4 7 7 3 10 10 10 9
11 10 10 8 9 10 10 11 12 13 12 11 10 9 9 9 9 8 8 7 8 9 8 7 7 8 9 9 10 10 10 10 10 9 8 8 8 8 7 8 8 8 7 7 6 6 6 6 5 4 7 7 6 5 4 5 5 3 3 3 2 3 2 2 2 1 1 1 1 1 1 1 1 3 2 2 3 3 7 7 7 7 4 10 9
9 11 10 11 12 10 11 11 10 10 10 10 10 8 8 8 7 7 8 9 9 8 9 9 8 7 8 9 11 11 10 11 10 10 9 8 8 8 9 10 9 8 7 7 7 6 6 7 7 4 5 7 6 7 6 5 5 4 3 2 2 2 2 1 1 1 1 1 1 1 2 2 2 2 2 1 2 3 3 5 8 8 8 3 9
10 11 10 10 8 8 8 10 10 9 9 9 8 7 6 6 6 7 8 9 9 8 8 9 11 9 8 8 10 10 10 11 11 11 10 9 8 7 6 7 8 9 10 9 7 6 6 6 8 6 3 4 7 7 7 6 5 4 3 2 2 2 1 0 0 1 1 0 1 0 1 1 2 1 1 1 1 2 3 3 4 4 3 6 7
9 8 9 8 9 8 7 8 9 9 7 6 6 6 6 7 7 5 7 9 9 8 8 8 7 9 12 11 9 9 9 10 10 10 10 9 8 8 9 9 7 7 8 10 9 8 10 9 7 9 6 2 2 4 6 7 5 5 3 3 2 1 1 1 1 1 1 2 2 1 2 1 0 0 0 0 1 2 3 3 3 3 3 5 8
6 7 8 9 11 12 10 12 10 8 8 8 8 9 9 6 6 10 11 7 7 7 8 8 8 8 7 10 11 9 8 9 11 11 12 11 10 9 9 8 10 11 10 11 12 14 13 13 10 7 10 7 3 4 4 6 8 3 3 2 2 2 1 1 2 2 3 2 1 2 1 1 2 2 2 1 1 2 3 3 4 3 4 4 3
10 10 12 14 13 11 11 11 7 9 10 11 10 10 10 10 9 9 8 7 7 7 8 7 8 6 8 8 9 10 12 11 10 8 8 8 9 8 10 10 10 9 10 10 10 9 7 7 9 7 5 10 8 9 8 9 3 7 6 2 1 3 1 2 3 4 2 2 2 2 2 3 3 3 2 2 2 2 3 3 3 3 3 4 4
9 10 11 8 7 9 10 9 9 10 10 11 10 11 9 7 8 6 8 5 4 5 5 4 4 5 7 8 8 8 10 11 11 12 12 11 10 8 9 9 10 9 9 9 8 8 10 11 12 11 8 3 3 6 11 11 7 4 3 5 3 2 4 2 3 6 5 5 3 4 4 4 5 3 2 3 4 3 2 2 2 3 3 4 4
6 6 7 10 9 10 9 9 10 10 10 10 11 8 6 5 4 3 4 7 6 5 5 4 4 6 9 7 7 8 9 8 9 9 9 11 13 14 12 10 11 12 12 12 11 11 9 9 10 9 10 9 5 8 10 11 6 11 4 6 2 3 4 10 10 5 6 6 6 6 4 5 5 4 2 4 4 4 4 3 3 3 2 2 2
8 9 9 10 9 13 13 12 10 10 8 8 9 5 5 4 3 2 2 1 1 3 5 7 7 7 6 8 9 5 6 9 9 9 9 9 10 11 11 12 12 10 9 8 9 12 12 12 14 13 14 13 11 9 10 11 9 11 8 6 1 2 8 1 5 4 4 5 7 6 6 6 6 5 4 4 3 3 4 4 4 3 3 2 2
8 11 9 9 7 7 6 7 6 6 8 8 8 8 8 8 7 7 7 5 7 6 10 11 8 8 9 4 4 7 7 6 7 9 9 9 9 9 10 11 12 11 11 12 12 12 14 14 14 13 14 13 14 12 10 10 10 10 8 3 4 5 5 4 4 6 0 5 3 7 8 7 6 7 6 6 5 5 4 6 5 6 5 5 4
8 2 3 5 5 5 5 7 7 7 6 7 8 8 7 7 10 12 11 11 11 9 5 5 6 6 5 6 6 5 7 8 7 8 9 10 9 9 10 9 9 9 10 11 11 12 12 14 12 13 14 11 7 10 13 12 8 9 10 8 1 1 4 7 7 3 3 3 5 6 7 7 7 7 8 7 6 5 7 6 7 6 6 5 4
1 2 4 3 5 5 4 5 5 5 5 5 7 8 10 9 9 10 10 10 11 10 7 6 4 4 7 8 6 6 7 8 8 8 9 10 11 11 11 11 12 12 12 13 13 10 7 7 7 11 9 11 14 13 12 10 15 14 13 11 8 1 2 3 2 9 5 4 6 3 3 5 5 7 8 9 10 10 8 7 8 7 6 5 5
1 4 4 4 3 3 4 4 5 5 5 6 8 8 9 9 10 9 9 8 7 6 4 4 5 4 6 6 7 6 6 8 9 9 9 9 9 11 12 11 11 11 11 11 12 13 16 15 14 14 14 13 12 14 11 12 13 13 10 11 10 7 4 3 2 1 5 6 5 7 8 2 5 8 10 9 8 7 9 10 9 9 7 6 5
0 0 1 2 3 4 5 5 5 5 5 6 7 7 8 7 8 8 11 9 6 4 3 5 5 4 7 7 7 7 7 7 8 7 7 7 8 8 7 7 6 6 7 9 8 9 12 14 16 18 18 18 14 13 15 12 13 11 12 11 12 9 3 4 4 5 2 5 10 8 9 11 11 12 9 11 11 10 9 8 8 7 6 5 5
2 1 1 2 3 4 5 5 5 4 5 6 7 8 7 7 9 10 11 11 8 6 6 6 5 4 7 7 7 7 6 8 6 7 8 7 7 6 7 7 6 6 7 8 10 10 9 9 9 9 11 13 12 13 13 12 12 12 12 11 13 14 16 15 15 10 10 8 4 6 5 10 11 5 7 11 9 10 9 8 10 9 8 7 6
Wind_Direction
217 187 220 161 144 149 159 152 157 161 118 101 95 92 88 85 82 84 86 84 87 88 88 92 93 96 99 89 88 93 93 92 89 83 79 77 79 79 80 80 80 82 85 85 86 87 88 90 89 86 85 87 86 83 84 84 84 85 80 76 75 67 58 55 60 71 79 83 85 85 85 84 82 80 78 78 78 76 71 71 67 65 68 76 78
166 195 203 183 148 147 146 154 152 126 104 98 94 90 87 86 86 82 82 89 82 82 90 95 92 93 96 98 99 92 79 82 83 85 84 82 80 80 79 78 78 80 84 86 86 87 87 85 87 89 90 90 88 88 87 86 89 91 86 81 73 66 66 64 63 72 79 83 84 85 86 86 86 84 84 84 84 82 79 78 77 73 74 78 80
128 143 184 165 145 141 145 143 118 103 96 95 93 91 92 90 90 90 86 82 91 94 93 94 98 101 95 96 98 92 90 86 86 83 84 83 80 78 78 78 81 85 88 89 89 87 85 87 88 91 92 93 92 91 91 91 94 95 87 82 75 74 71 67 69 69 67 75 78 81 83 85 85 85 85 84 84 83 82 85 88 88 85 81 76
135 145 155 146 142 138 124 114 107 100 95 93 94 94 93 92 89 87 87 91 95 97 99 101 103 102 107 107 101 89 92 95 90 87 86 85 85 83 83 83 85 88 93 92 92 91 91 90 91 95 98 95 95 95 94 95 96 98 94 82 80 77 73 68 67 64 69 75 78 65 61 71 85 90 90 87 80 76 80 87 87 86 86 85 85
137 147 151 137 126 129 121 112 111 106 105 102 101 102 100 96 94 97 101 100 99 99 103 103 101 102 99 97 99 101 96 93 88 92 91 90 90 88 87 88 88 90 93 95 96 96 96 95 95 97 98 97 96 99 100 100 100 101 95 83 77 73 69 65 59 56 57 56 52 54 54 59 80 88 89 85 81 79 77 77 78 80 80 82 83
145 143 145 134 121 132 125 121 117 111 109 109 109 109 105 100 99 98 97 100 105 106 102 101 104 106 107 107 105 99 99 100 100 95 91 90 90 90 89 88 92 96 99 100 101 101 99 97 97 102 104 100 98 99 101 102 102 101 95 84 77 69 62 58 54 49 44 38 38 43 65 81 80 84 88 91 87 80 79 82 84 84 82 78 77
145 140 139 133 126 136 135 131 122 118 114 115 113 109 105 102 101 100 97 97 100 106 108 112 111 107 107 107 104 101 98 101 100 94 92 92 90 87 88 90 93 103 106 105 105 104 101 97 98 100 105 103 99 100 101 100 101 102 98 85 73 66 61 56 52 48 45 38 37 37 41 41 47 92 97 93 89 84 83 81 80 76 74 75 75
142 139 139 136 134 143 137 131 129 123 122 119 118 112 109 106 104 105 105 107 109 109 109 108 110 112 111 109 106 102 99 98 97 95 94 92 92 93 88 90 100 106 109 108 107 103 101 97 98 103 104 103 100 101 100 100 102 103 98 80 67 62 56 53 51 51 52 51 47 47 52 56 53 55 85 84 79 80 75 76 75 72 73 75 73
149 141 133 135 148 147 135 133 133 129 125 125 123 120 114 112 110 109 109 108 108 109 109 107 104 106 109 112 108 102 101 98 95 96 97 100 99 95 95 96 105 110 111 110 106 102 101 101 102 104 107 106 104 103 100 96 94 94 88 74 67 60 57 55 49 45 46 53 59 63 59 55 55 76 81 78 75 72 70 66 67 70 71 72 78
150 125 132 138 151 151 135 141 138 133 131 131 127 123 120 119 118 117 115 114 115 116 115 116 117 117 116 115 107 106 101 100 99 98 98 99 101 104 101 103 110 112 113 110 105 105 103 104 106 105 103 101 99 97 94 92 91 89 80 74 69 64 59 52 48 40 47 50 59 65 75 77 69 78 84 82 78 75 73 78 81 78 71 67 67
150 138 135 146 154 151 146 145 141 139 137 135 132 128 127 124 123 123 121 121 121 121 121 118 116 115 119 116 109 108 112 108 104 104 104 103 104 104 101 104 110 114 114 110 106 103 105 105 106 105 104 100 99 98 92 89 86 80 77 74 70 65 60 54 49 51 49 48 49 52 73 82 84 86 90 89 86 81 77 79 79 77 74 72 70
151 143 147 155 158 157 152 149 147 143 142 141 136 136 132 130 127 126 126 126 127 124 121 121 120 119 122 122 116 115 113 111 113 112 109 109 107 101 101 103 115 116 115 112 104 103 106 105 106 106 103 104 98 94 94 90 86 83 80 77 73 67 61 54 51 51 49 52 53 57 52 56 70 87 88 88 84 82 84 81 76 72 70 70 71
152 150 154 161 160 170 153 157 150 146 148 145 142 140 138 137 133 130 131 131 130 129 126 126 125 125 124 121 119 117 117 118 114 114 113 109 105 102 103 105 117 122 119 111 104 103 106 108 108 109 106 100 98 96 94 91 88 86 82 78 72 67 59 51 52 54 55 52 58 60 62 64 81 89 87 85 84 82 77 75 74 73 73 73 74
152 153 157 167 165 172 157 160 153 152 152 148 146 146 143 140 139 135 133 133 132 131 131 129 128 127 126 116 119 122 119 116 116 115 113 111 105 104 104 109 118 123 120 108 101 103 104 109 111 109 105 103 102 101 99 94 91 86 81 76 69 63 58 59 58 61 61 57 57 57 67 80 87 88 85 83 80 81 81 79 76 76 78 79 80
155 157 160 165 171 172 166 163 157 157 151 150 149 152 148 145 142 140 135 134 135 134 133 131 131 131 128 127 120 120 126 119 122 120 117 112 111 106 105 109 124 124 122 110 98 100 98 106 111 107 106 106 103 104 102 93 92 87 82 76 71 62 59 58 56 60 62 58 55 65 73 82 87 87 83 83 86 85 82 80 80 80 79 79 78
156 155 159 167 172 168 168 168 162 159 156 151 151 155 153 148 145 143 140 139 138 138 136 134 132 133 134 130 124 127 128 125 126 122 115 116 114 109 107 110 124 127 118 108 103 96 96 104 105 107 106 108 108 104 96 92 90 87 83 74 61 55 54 55 55 57 58 59 55 55 74 90 88 88 90 90 87 83 82 83 82 79 79 77 77
156 156 161 168 171 168 164 166 164 162 156 155 157 157 155 151 148 147 146 144 143 142 140 138 137 135 136 130 101 92 115 119 123 125 131 130 115 109 109 114 128 125 115 113 99 93 99 103 107 110 108 101 100 97 95 92 88 85 78 73 67 57 57 55 58 53 53 53 50 50 61 72 94 99 94 90 90 90 88 88 85 82 79 77 79
159 161 166 167 169 169 163 164 159 160 159 158 161 160 156 155 153 149 149 148 148 146 145 144 140 129 104 86 79 87 93 91 78 88 112 113 116 117 113 119 129 127 124 105 93 89 94 93 96 97 98 96 95 94 91 89 84 79 76 74 70 64 64 61 59 53 70 76 67 61 73 105 96 92 94 94 93 93 92 89 86 85 84 85 85
161 168 167 167 171 166 166 161 162 160 160 159 163 167 162 156 154 153 151 153 150 148 148 143 129 118 108 90 83 84 85 87 88 84 84 101 107 108 114 120 132 124 110 104 95 93 89 91 92 93 94 95 93 90 87 85 83 80 77 74 72 70 62 59 54 60 62 64 73 81 89 104 101 101 100 99 95 91 89 87 87 85 91 90 88
167 171 166 174 171 164 163 162 168 165 163 162 166 167 165 157 155 154 155 156 152 150 144 135 127 119 110 103 96 91 90 91 93 92 97 99 101 107 113 121 132 126 122 107 101 99 95 93 93 92 89 90 89 86 85 81 80 80 74 75 72 64 58 54 60 60 65 71 80 97 125 109 102 101 100 98 95 92 91 91 88 87 87 89 88
165 178 165 170 173 172 167 156 173 168 162 163 167 166 165 156 155 157 158 157 153 148 138 127 122 119 115 110 98 88 89 92 89 96 96 103 109 115 118 124 132 127 123 111 106 102 100 96 94 93 91 86 77 74 75 80 77 76 75 72 73 63 55 63 67 68 77 91 92 85 79 95 106 106 106 105 102 100 95 94 96 100 96 89 90
178 176 181 180 170 165 165 170 171 173 167 168 159 165 161 161 158 159 158 156 146 136 132 132 126 120 117 110 106 101 92 90 97 101 100 104 111 116 119 127 132 120 119 115 109 104 103 101 98 96 94 88 79 81 75 67 67 73 72 75 72 73 59 68 74 73 74 83 97 125 124 116 105 101 101 98 97 95 94 91 89 90 94 94 90
191 187 187 187 183 177 179 177 177 176 170 170 161 163 165 163 159 157 153 147 141 138 138 133 129 130 120 107 106 109 107 99 107 115 112 111 116 116 117 122 127 130 119 117 112 104 103 101 96 93 88 81 75 77 76 72 66 62 66 68 77 73 76 71 72 62 42 39 87 98 89 97 105 103 97 94 91 90 95 99 101 101 94 93 94
191 192 181 187 188 188 184 180 180 176 174 172 158 167 168 164 162 157 148 143 143 143 142 141 138 138 132 119 113 114 111 108 112 113 108 108 116 117 120 125 131 129 118 107 83 83 89 89 89 86 78 76 83 75 79 69 66 61 63 65 71 67 70 69 72 63 52 58 102 109 119 113 108 104 106 103 97 99 102 99 95 91 90 92 93
192 179 188 193 194 189 185 185 180 178 179 172 158 165 168 165 168 160 153 149 147 146 149 147 150 146 138 131 126 116 113 116 119 112 113 119 119 120 121 122 123 122 107 91 99 88 88 88 80 77 81 91 88 78 86 83 68 69 68 62 66 60 60 57 64 63 41 35 73 127 127 111 110 113 110 101 102 103 101 104 104 99 100 95 95
178 188 196 194 195 191 189 185 181 182 186 176 175 173 170 174 173 167 157 158 156 156 158 158 158 155 146 139 129 123 124 126 129 128 127 130 129 131 130 126 122 129 112 108 105 103 93 97 95 90 82 81 85 83 76 93 96 79 77 67 67 62 51 43 50 59 49 45 349 90 111 117 123 122 114 110 107 107 112 110 102 102 102 102 99
193 201 194 197 193 192 191 188 188 184 189 178 173 175 183 182 177 172 164 169 165 163 173 170 170 162 155 153 146 146 143 145 146 147 151 149 144 146 144 143 143 138 129 121 115 113 113 108 103 103 101 95 86 83 83 80 86 99 85 77 69 66 55 48 32 44 37 43 38 29 107 131 130 124 124 118 117 119 115 106 106 111 109 105 102
199 202 199 196 193 194 190 190 192 188 187 182 178 182 184 182 181 172 178 171 168 176 177 179 170 171 167 166 158 157 155 156 162 160 165 161 162 160 150 144 145 147 134 124 126 124 119 115 114 112 106 98 103 92 92 85 86 96 100 88 80 72 66 53 37 27 18 18 35 19 114 123 126 137 134 125 126 127 123 125 127 121 118 113 113
206 206 203 199 199 193 188 194 193 193 188 183 186 183 186 186 182 182 187 170 181 181 176 169 176 175 173 168 162 158 160 160 166 172 157 171 164 164 162 159 153 155 139 131 136 138 130 132 128 123 116 113 108 106 101 88 90 88 106 99 93 82 80 69 47 33 25 9 40 29 81 123 129 139 137 133 137 133 131 129 127 121 117 117 112
209 204 202 207 200 192 194 195 193 192 190 187 192 186 187 189 190 189 189 174 188 180 167 177 182 174 178 179 178 170 171 170 169 166 167 172 171 166 169 168 167 159 148 147 152 141 141 132 127 128 124 124 116 122 113 103 92 96 101 111 96 98 93 95 79 57 38 17 39 31 35 117 137 148 148 145 130 136 137 133 131 128 133 127 120
202 211 208 206 197 196 201 196 195 191 189 193 193 193 188 192 191 189 189 186 185 177 178 182 184 187 183 180 181 180 171 170 168 169 175 168 171 171 179 173 171 170 155 144 140 144 140 143 148 144 139 132 127 129 124 113 104 95 103 107 116 107 97 93 90 85 68 49 47 24 26 64 126 150 152 144 138 142 140 138 143 141 140 134 134
204 213 208 196 196 203 200 197 195 191 192 195 193 197 195 193 189 190 194 189 186 187 184 186 191 191 183 184 183 180 175 174 171 172 175 170 174 179 176 176 186 172 160 144 140 138 137 127 117 117 120 120 119 108 104 119 104 86 92 104 103 98 91 88 92 82 86 74 71 30 26 61 65 83 144 148 149 150 150 150 151 149 147 147 143
218 212 201 191 204 201 200 199 195 194 196 194 194 198 196 195 192 191 191 185 191 190 189 191 192 192 186 186 188 182 181 175 177 176 176 177 176 175 181 189 183 171 158 147 137 133 120 117 104 110 108 109 111 105 94 95 113 95 74 73 88 86 76 83 92 82 81 88 91 73 63 66 71 71 64 86 152 160 154 157 154 153 149 153 158
218 209 190 207 204 201 201 198 199 199 199 196 194 197 197 196 197 192 187 186 192 197 195 191 188 189 190 187 188 186 186 184 176 176 172 174 179 186 186 186 179 168 156 150 149 152 142 135 139 127 135 135 135 139 129 114 97 96 85 59 64 67 71 72 69 92 88 91 94 95 92 89 85 87 68 72 63 118 158 165 165 168 167 165 158
222 210 209 212 195 202 194 204 200 203 199 201 194 198 196 196 195 195 190 189 193 199 196 194 188 188 187 190 191 189 192 189 184 177 181 180 182 188 193 190 172 163 164 167 155 157 151 152 151 137 135 127 129 139 136 131 132 119 107 99 94 62 64 62 31 41 47 36 56 79 76 104 111 96 86 83 61 58 80 173 177 175 169 169 155
217 217 218 202 206 204 196 204 198 206 203 204 199 195 196 197 197 196 193 192 195 200 199 196 195 187 187 192 193 191 191 192 188 187 184 185 186 191 195 177 175 167 169 162 155 162 163 152 170 151 142 149 139 122 120 131 130 127 121 106 101 85 93 74 50 34 356 351 27 37 19 60 98 108 103 85 87 70 84 58 105 151 162 172 165
215 214 212 203 210 205 199 203 201 204 206 204 205 199 193 199 197 194 199 197 201 202 201 196 197 196 189 193 193 192 193 194 191 189 193 193 189 190 189 181 174 177 172 172 172 170 160 159 171 185 159 153 157 144 139 139 132 119 104 101 78 103 93 57 85 34 347 27 357 5 10 6 4 40 66 98 85 88 72 77 74 65 143 172 170
217 215 213 205 208 200 200 204 205 202 204 204 203 203 201 197 199 199 197 205 209 207 201 195 203 201 197 197 191 193 193 195 193 191 195 197 199 193 186 178 176 176 177 179 187 169 166 163 169 191 171 149 161 159 156 143 134 125 103 85 69 69 73 89 39 17 51 89 37 1 352 342 360 2 18 40 71 80 72 66 76 77 60 109 177
214 212 208 211 208 202 201 206 205 199 203 199 198 200 194 198 198 200 206 209 210 208 205 203 200 199 207 203 195 194 193 196 194 192 197 194 196 195 187 185 183 181 177 180 178 175 172 175 170 173 185 186 167 167 156 146 131 118 101 65 59 42 1 6 356 343 23 24 219 146 336 4 350 358 359 14 40 80 92 79 90 88 77 74 79
213 207 208 206 208 205 201 204 206 201 195 193 182 192 189 192 198 212 222 215 211 211 209 208 202 208 201 194 201 200 188 194 196 193 198 197 197 195 188 175 183 190 189 182 176 178 181 178 187 169 157 120 101 135 134 127 96 88 88 66 59 45 33 10 349 311 302 230 235 208 187 191 91 320 346 312 77 120 123 122 116 116 102 79 77
211 204 202 206 205 205 192 205 201 191 186 191 193 192 196 198 206 205 215 212 216 213 215 217 207 205 209 205 194 198 197 194 200 195 196 195 196 191 193 198 186 184 194 199 190 186 187 181 169 163 160 154 149 137 146 131 126 62 19 39 20 10 358 38 280 253 238 273 305 271 294 265 239 247 257 276 219 173 155 148 144 135 120 106 87
217 200 202 206 205 201 199 206 186 191 196 196 197 199 202 202 199 211 212 208 212 214 221 217 217 213 207 208 212 201 196 195 192 197 205 204 203 199 193 187 188 197 200 204 199 187 186 170 152 156 192 173 173 168 169 133 186 180 159 206 342 322 268 294 276 251 243 261 246 257 258 263 245 247 279 294 248 224 196 183 170 150 149 135 146
215 204 213 207 204 203 208 200 193 192 200 197 194 205 205 207 203 208 202 217 230 223 229 225 215 220 220 215 206 208 204 201 195 193 192 196 201 201 199 188 193 195 196 202 200 197 184 183 177 173 173 191 133 176 178 189 159 106 78 83 246 240 263 275 236 240 209 205 217 222 221 229 244 249 280 287 274 272 262 247 214 185 182 173 154
214 207 206 205 203 206 204 199 197 196 197 199 200 205 195 186 194 179 200 193 204 206 217 234 219 220 225 217 219 209 205 206 198 199 209 205 199 197 196 204 201 195 199 192 185 195 199 192 183 184 168 162 174 194 204 197 147 140 179 199 163 152 306 235 211 227 186 200 204 215 202 222 236 253 282 259 264 281 281 298 266 253 247 208 162
212 210 204 204 202 204 204 199 196 195 197 192 194 172 146 146 121 73 72 78 18 184 205 225 217 219 222 216 223 215 212 207 200 199 202 212 213 212 202 198 193 193 192 197 196 193 193 201 195 183 181 180 182 190 203 209 201 198 150 122 92 261 230 332 142 242 164 204 220 211 208 210 217 217 222 244 271 277 292 295 291 300 281 262 220
221 218 207 209 205 209 198 194 192 189 193 190 181 168 178 175 168 177 196 200 215 196 210 216 210 211 217 208 214 214 220 220 206 199 201 206 212 217 217 202 199 192 193 199 201 194 195 195 197 193 197 203 188 173 194 215 216 211 211 205 148 188 182 204 125 250 3 240 220 208 209 207 204 206 208 213 217 234 237 251 247 244 240 234 228
234 233 218 216 210 201 191 192 193 194 189 183 172 172 180 188 193 200 206 209 217 225 220 216 209 212 197 207 214 212 219 222 223 214 207 207 214 211 210 211 205 201 201 206 208 203 201 203 194 197 200 192 175 194 196 194 206 234 229 228 183 211 182 132 214 69 285 243 225 216 221 212 204 207 215 219 212 216 225 227 236 235 233 229 222
245 194 210 206 203 202 186 193 192 190 190 175 177 183 189 193 199 211 213 218 217 225 196 212 204 189 201 212 208 211 212 220 224 223 220 215 215 219 216 213 211 208 199 206 206 197 183 194 203 215 209 200 193 197 201 186 188 214 211 220 232 321 266 319 185 195 179 180 236 239 281 235 236 231 218 214 213 214 215 217 223 228 226 221 222
216 187 196 192 185 173 174 174 187 187 190 183 184 194 199 196 203 207 221 227 227 230 193 197 198 196 209 213 213 215 213 216 221 225 222 222 220 225 224 221 217 211 200 202 201 196 195 193 194 200 206 208 208 209 195 195 199 211 175 219 222 217 217 243 330 286 175 202 245 185 220 189 241 241 228 221 231 221 217 217 217 221 219 213 212
282 167 136 145 160 157 169 173 196 191 188 188 191 199 202 198 205 212 222 228 219 233 183 210 209 192 216 213 214 217 217 219 221 223 227 217 209 212 210 209 205 201 201 220 230 226 218 209 203 202 202 203 204 202 204 199 201 207 194 198 199 205 200 248 247 209 259 209 222 197 194 186 212 233 207 219 219 221 221 219 216 220 224 218 208
14 76 103 145 155 167 172 182 202 187 186 194 191 201 202 203 212 213 220 225 217 210 216 231 215 212 221 218 214 220 217 223 217 225 222 223 228 217 215 214 207 208 204 204 208 213 213 212 214 219 222 218 212 208 213 209 201 205 203 200 203 196 198 204 211 202 196 202 228 232 187 199 214 250 224 217 214 218 218 216 219 214 206 208 208